Year,Month,Day,Hour,Minute,Value (Times are PST for temperature in C)
2017,08,01,00,00,17.30
2017,08,01,00,01,17.20
2017,08,01,00,02,17.20
2017,08,01,00,03,17.20
2017,08,01,00,04,17.10
2017,08,01,00,05,17.10
2017,08,01,00,06,17.10
2017,08,01,00,07,17.10
2017,08,01,00,08,17.10
2017,08,01,00,09,17.00
2017,08,01,00,10,17.00
2017,08,01,00,11,17.00
2017,08,01,00,12,17.00
2017,08,01,00,13,17.00
2017,08,01,00,14,16.90
2017,08,01,00,15,16.90
2017,08,01,00,16,16.90
2017,08,01,00,17,16.90
2017,08,01,00,18,16.90
2017,08,01,00,19,16.90
2017,08,01,00,20,16.90
2017,08,01,00,21,16.90
2017,08,01,00,22,16.80
2017,08,01,00,23,16.80
2017,08,01,00,24,16.80
2017,08,01,00,25,16.80
2017,08,01,00,26,16.80
2017,08,01,00,27,16.80
2017,08,01,00,28,16.70
2017,08,01,00,29,16.70
2017,08,01,00,30,16.70
2017,08,01,00,31,16.70
2017,08,01,00,32,16.70
2017,08,01,00,33,16.70
2017,08,01,00,34,16.70
2017,08,01,00,35,16.70
2017,08,01,00,36,16.70
2017,08,01,00,37,16.70
2017,08,01,00,38,16.60
2017,08,01,00,39,16.60
2017,08,01,00,40,16.60
2017,08,01,00,41,16.60
2017,08,01,00,42,16.60
2017,08,01,00,43,16.50
2017,08,01,00,44,16.40
2017,08,01,00,45,16.40
2017,08,01,00,46,16.40
2017,08,01,00,47,16.40
2017,08,01,00,48,16.40
2017,08,01,00,49,16.40
2017,08,01,00,50,16.40
2017,08,01,00,51,16.40
2017,08,01,00,52,16.40
2017,08,01,00,53,16.40
2017,08,01,00,54,16.40
2017,08,01,00,55,16.40
2017,08,01,00,56,16.40
2017,08,01,00,57,16.30
2017,08,01,00,58,16.30
2017,08,01,00,59,16.30
2017,08,01,01,00,16.30
2017,08,01,01,01,16.30
2017,08,01,01,02,16.30
2017,08,01,01,03,16.30
2017,08,01,01,04,16.30
2017,08,01,01,05,16.30
2017,08,01,01,06,16.30
2017,08,01,01,07,16.30
2017,08,01,01,08,16.30
2017,08,01,01,09,16.30
2017,08,01,01,10,16.30
2017,08,01,01,11,16.30
2017,08,01,01,12,16.30
2017,08,01,01,13,16.30
2017,08,01,01,14,16.30
2017,08,01,01,15,16.30
2017,08,01,01,16,16.20
2017,08,01,01,17,16.20
2017,08,01,01,18,16.20
2017,08,01,01,19,16.20
2017,08,01,01,20,16.20
2017,08,01,01,21,16.20
2017,08,01,01,22,16.20
2017,08,01,01,23,16.20
2017,08,01,01,24,16.20
2017,08,01,01,25,16.20
2017,08,01,01,26,16.20
2017,08,01,01,27,16.20
2017,08,01,01,28,16.20
2017,08,01,01,29,16.20
2017,08,01,01,30,16.20
2017,08,01,01,31,16.20
2017,08,01,01,32,16.20
2017,08,01,01,33,16.20
2017,08,01,01,34,16.20
2017,08,01,01,35,16.20
2017,08,01,01,36,16.20
2017,08,01,01,37,16.20
2017,08,01,01,38,16.20
2017,08,01,01,39,16.20
2017,08,01,01,40,16.20
2017,08,01,01,41,16.10
2017,08,01,01,42,16.10
2017,08,01,01,43,16.10
2017,08,01,01,44,16.10
2017,08,01,01,45,16.10
2017,08,01,01,46,16.10
2017,08,01,01,47,16.10
2017,08,01,01,48,16.10
2017,08,01,01,49,16.10
2017,08,01,01,50,16.10
2017,08,01,01,51,16.10
2017,08,01,01,52,16.10
2017,08,01,01,53,16.10
2017,08,01,01,54,16.10
2017,08,01,01,55,16.10
2017,08,01,01,56,16.10
2017,08,01,01,57,16.10
2017,08,01,01,58,16.10
2017,08,01,01,59,16.10
2017,08,01,02,00,16.10
2017,08,01,02,01,16.10
2017,08,01,02,02,16.10
2017,08,01,02,03,16.10
2017,08,01,02,04,16.10
2017,08,01,02,05,16.10
2017,08,01,02,06,16.10
2017,08,01,02,07,16.00
2017,08,01,02,08,15.90
2017,08,01,02,09,15.90
2017,08,01,02,10,15.90
2017,08,01,02,11,15.90
2017,08,01,02,12,15.90
2017,08,01,02,13,15.90
2017,08,01,02,14,15.90
2017,08,01,02,15,15.90
2017,08,01,02,16,15.90
2017,08,01,02,17,15.90
2017,08,01,02,18,15.90
2017,08,01,02,19,15.90
2017,08,01,02,20,15.90
2017,08,01,02,21,15.90
2017,08,01,02,22,15.80
2017,08,01,02,23,15.80
2017,08,01,02,24,15.80
2017,08,01,02,25,15.80
2017,08,01,02,26,15.80
2017,08,01,02,27,15.80
2017,08,01,02,28,15.80
2017,08,01,02,29,15.80
2017,08,01,02,30,15.80
2017,08,01,02,31,15.80
2017,08,01,02,32,15.80
2017,08,01,02,33,15.70
2017,08,01,02,34,15.70
2017,08,01,02,35,15.70
2017,08,01,02,36,15.70
2017,08,01,02,37,15.70
2017,08,01,02,38,15.70
2017,08,01,02,39,15.70
2017,08,01,02,40,15.70
2017,08,01,02,41,15.70
2017,08,01,02,42,15.70
2017,08,01,02,43,15.70
2017,08,01,02,44,15.70
2017,08,01,02,45,15.70
2017,08,01,02,46,15.70
2017,08,01,02,47,15.70
2017,08,01,02,48,15.70
2017,08,01,02,49,15.60
2017,08,01,02,50,15.60
2017,08,01,02,51,15.60
2017,08,01,02,52,15.60
2017,08,01,02,53,15.60
2017,08,01,02,54,15.50
2017,08,01,02,55,15.50
2017,08,01,02,56,15.50
2017,08,01,02,57,15.50
2017,08,01,02,58,15.50
2017,08,01,02,59,15.50
2017,08,01,03,00,15.50
2017,08,01,03,01,15.50
2017,08,01,03,02,15.50
2017,08,01,03,03,15.50
2017,08,01,03,04,15.50
2017,08,01,03,05,15.50
2017,08,01,03,06,15.50
2017,08,01,03,07,15.50
2017,08,01,03,08,15.50
2017,08,01,03,09,15.50
2017,08,01,03,10,15.40
2017,08,01,03,11,15.40
2017,08,01,03,12,15.40
2017,08,01,03,13,15.30
2017,08,01,03,14,15.30
2017,08,01,03,15,15.30
2017,08,01,03,16,15.30
2017,08,01,03,17,15.20
2017,08,01,03,18,15.20
2017,08,01,03,19,15.10
2017,08,01,03,20,15.10
2017,08,01,03,21,15.10
2017,08,01,03,22,15.00
2017,08,01,03,23,15.00
2017,08,01,03,24,15.00
2017,08,01,03,25,14.90
2017,08,01,03,26,14.90
2017,08,01,03,27,14.90
2017,08,01,03,28,14.90
2017,08,01,03,29,14.90
2017,08,01,03,30,14.80
2017,08,01,03,31,14.80
2017,08,01,03,32,14.80
2017,08,01,03,33,14.80
2017,08,01,03,34,14.80
2017,08,01,03,35,14.80
2017,08,01,03,36,14.80
2017,08,01,03,37,14.80
2017,08,01,03,38,14.80
2017,08,01,03,39,14.80
2017,08,01,03,40,14.70
2017,08,01,03,41,14.70
2017,08,01,03,42,14.70
2017,08,01,03,43,14.70
2017,08,01,03,44,14.70
2017,08,01,03,45,14.70
2017,08,01,03,46,14.70
2017,08,01,03,47,14.60
2017,08,01,03,48,14.60
2017,08,01,03,49,14.60
2017,08,01,03,50,14.60
2017,08,01,03,51,14.60
2017,08,01,03,52,14.50
2017,08,01,03,53,14.50
2017,08,01,03,54,14.50
2017,08,01,03,55,14.50
2017,08,01,03,56,14.40
2017,08,01,03,57,14.40
2017,08,01,03,58,14.40
2017,08,01,03,59,14.40
2017,08,01,04,00,14.30
2017,08,01,04,01,14.30
2017,08,01,04,02,14.30
2017,08,01,04,03,14.30
2017,08,01,04,04,14.20
2017,08,01,04,05,14.20
2017,08,01,04,06,14.20
2017,08,01,04,07,14.20
2017,08,01,04,08,14.20
2017,08,01,04,09,14.20
2017,08,01,04,10,14.10
2017,08,01,04,11,14.10
2017,08,01,04,12,14.10
2017,08,01,04,13,14.10
2017,08,01,04,14,14.10
2017,08,01,04,15,14.00
2017,08,01,04,16,14.00
2017,08,01,04,17,14.00
2017,08,01,04,18,14.00
2017,08,01,04,19,14.00
2017,08,01,04,20,14.00
2017,08,01,04,21,13.90
2017,08,01,04,22,13.90
2017,08,01,04,23,13.90
2017,08,01,04,24,13.90
2017,08,01,04,25,13.90
2017,08,01,04,26,13.90
2017,08,01,04,27,13.80
2017,08,01,04,28,13.80
2017,08,01,04,29,13.80
2017,08,01,04,30,13.80
2017,08,01,04,31,13.80
2017,08,01,04,32,13.70
2017,08,01,04,33,13.70
2017,08,01,04,34,13.70
2017,08,01,04,35,13.70
2017,08,01,04,36,13.70
2017,08,01,04,37,13.70
2017,08,01,04,38,13.70
2017,08,01,04,39,13.70
2017,08,01,04,40,13.70
2017,08,01,04,41,13.70
2017,08,01,04,42,13.70
2017,08,01,04,43,13.70
2017,08,01,04,44,13.70
2017,08,01,04,45,13.70
2017,08,01,04,46,13.70
2017,08,01,04,47,13.70
2017,08,01,04,48,13.70
2017,08,01,04,49,13.70
2017,08,01,04,50,13.70
2017,08,01,04,51,13.70
2017,08,01,04,52,13.70
2017,08,01,04,53,13.70
2017,08,01,04,54,13.70
2017,08,01,04,55,13.70
2017,08,01,04,56,13.70
2017,08,01,04,57,13.70
2017,08,01,04,58,13.70
2017,08,01,04,59,13.70
2017,08,01,05,00,13.70
2017,08,01,05,01,13.70
2017,08,01,05,02,13.70
2017,08,01,05,03,13.70
2017,08,01,05,04,13.70
2017,08,01,05,05,13.70
2017,08,01,05,06,13.70
2017,08,01,05,07,13.70
2017,08,01,05,08,13.70
2017,08,01,05,09,13.60
2017,08,01,05,10,13.60
2017,08,01,05,11,13.60
2017,08,01,05,12,13.70
2017,08,01,05,13,13.70
2017,08,01,05,14,13.70
2017,08,01,05,15,13.70
2017,08,01,05,16,13.70
2017,08,01,05,17,13.70
2017,08,01,05,18,13.70
2017,08,01,05,19,13.70
2017,08,01,05,20,13.70
2017,08,01,05,21,13.70
2017,08,01,05,22,13.70
2017,08,01,05,23,13.70
2017,08,01,05,24,13.70
2017,08,01,05,25,13.70
2017,08,01,05,26,13.70
2017,08,01,05,27,13.70
2017,08,01,05,28,13.70
2017,08,01,05,29,13.70
2017,08,01,05,30,13.70
2017,08,01,05,31,13.70
2017,08,01,05,32,13.70
2017,08,01,05,33,13.70
2017,08,01,05,34,13.70
2017,08,01,05,35,13.70
2017,08,01,05,36,13.70
2017,08,01,05,37,13.70
2017,08,01,05,38,13.70
2017,08,01,05,39,13.70
2017,08,01,05,40,13.70
2017,08,01,05,41,13.70
2017,08,01,05,42,13.70
2017,08,01,05,43,13.70
2017,08,01,05,44,13.80
2017,08,01,05,45,13.80
2017,08,01,05,46,13.80
2017,08,01,05,47,13.80
2017,08,01,05,48,13.80
2017,08,01,05,49,13.80
2017,08,01,05,50,13.80
2017,08,01,05,51,13.80
2017,08,01,05,52,13.80
2017,08,01,05,53,13.80
2017,08,01,05,54,13.80
2017,08,01,05,55,13.70
2017,08,01,05,56,13.70
2017,08,01,05,57,13.70
2017,08,01,05,58,13.70
2017,08,01,05,59,13.70
2017,08,01,06,00,13.70
2017,08,01,06,01,13.70
2017,08,01,06,02,13.70
2017,08,01,06,03,13.80
2017,08,01,06,04,13.80
2017,08,01,06,05,13.80
2017,08,01,06,06,13.80
2017,08,01,06,07,13.80
2017,08,01,06,08,13.80
2017,08,01,06,09,13.80
2017,08,01,06,10,13.80
2017,08,01,06,11,13.80
2017,08,01,06,12,13.80
2017,08,01,06,13,13.80
2017,08,01,06,14,13.80
2017,08,01,06,15,13.80
2017,08,01,06,16,13.90
2017,08,01,06,17,13.90
2017,08,01,06,18,13.90
2017,08,01,06,19,13.90
2017,08,01,06,20,13.90
2017,08,01,06,21,13.90
2017,08,01,06,22,13.90
2017,08,01,06,23,13.90
2017,08,01,06,24,13.90
2017,08,01,06,25,13.90
2017,08,01,06,26,14.00
2017,08,01,06,27,14.00
2017,08,01,06,28,14.00
2017,08,01,06,29,14.00
2017,08,01,06,30,14.00
2017,08,01,06,31,14.00
2017,08,01,06,32,14.00
2017,08,01,06,33,14.00
2017,08,01,06,34,14.00
2017,08,01,06,35,14.00
2017,08,01,06,36,14.00
2017,08,01,06,37,14.00
2017,08,01,06,38,14.00
2017,08,01,06,39,14.10
2017,08,01,06,40,14.10
2017,08,01,06,41,14.10
2017,08,01,06,42,14.10
2017,08,01,06,43,14.10
2017,08,01,06,44,14.20
2017,08,01,06,45,14.20
2017,08,01,06,46,14.20
2017,08,01,06,47,14.40
2017,08,01,06,48,14.40
2017,08,01,06,49,14.50
2017,08,01,06,50,14.50
2017,08,01,06,51,14.60
2017,08,01,06,52,14.60
2017,08,01,06,53,14.70
2017,08,01,06,54,14.70
2017,08,01,06,55,14.80
2017,08,01,06,56,14.90
2017,08,01,06,57,15.00
2017,08,01,06,58,15.10
2017,08,01,06,59,15.20
2017,08,01,07,00,15.30
2017,08,01,07,01,15.40
2017,08,01,07,02,15.50
2017,08,01,07,03,15.60
2017,08,01,07,04,15.80
2017,08,01,07,05,15.80
2017,08,01,07,06,16.00
2017,08,01,07,07,16.10
2017,08,01,07,08,16.20
2017,08,01,07,09,16.30
2017,08,01,07,10,16.40
2017,08,01,07,11,16.40
2017,08,01,07,12,16.50
2017,08,01,07,13,16.60
2017,08,01,07,14,16.60
2017,08,01,07,15,16.70
2017,08,01,07,16,16.70
2017,08,01,07,17,16.70
2017,08,01,07,18,16.80
2017,08,01,07,19,16.90
2017,08,01,07,20,16.90
2017,08,01,07,21,17.00
2017,08,01,07,22,17.00
2017,08,01,07,23,17.10
2017,08,01,07,24,17.20
2017,08,01,07,25,17.30
2017,08,01,07,26,17.40
2017,08,01,07,27,17.50
2017,08,01,07,28,17.60
2017,08,01,07,29,17.70
2017,08,01,07,30,17.80
2017,08,01,07,31,17.90
2017,08,01,07,32,17.90
2017,08,01,07,33,18.00
2017,08,01,07,34,18.10
2017,08,01,07,35,18.10
2017,08,01,07,36,18.20
2017,08,01,07,37,18.20
2017,08,01,07,38,18.30
2017,08,01,07,39,18.40
2017,08,01,07,40,18.50
2017,08,01,07,41,18.50
2017,08,01,07,42,18.60
2017,08,01,07,43,18.70
2017,08,01,07,44,18.80
2017,08,01,07,45,18.90
2017,08,01,07,46,19.00
2017,08,01,07,47,19.10
2017,08,01,07,48,19.20
2017,08,01,07,49,19.30
2017,08,01,07,50,19.30
2017,08,01,07,51,19.40
2017,08,01,07,52,19.50
2017,08,01,07,53,19.60
2017,08,01,07,54,19.70
2017,08,01,07,55,19.80
2017,08,01,07,56,19.90
2017,08,01,07,57,19.90
2017,08,01,07,58,19.90
2017,08,01,07,59,20.00
2017,08,01,08,00,20.10
2017,08,01,08,01,20.10
2017,08,01,08,02,20.20
2017,08,01,08,03,20.20
2017,08,01,08,04,20.20
2017,08,01,08,05,20.20
2017,08,01,08,06,20.30
2017,08,01,08,07,20.30
2017,08,01,08,08,20.40
2017,08,01,08,09,20.50
2017,08,01,08,10,20.50
2017,08,01,08,11,20.60
2017,08,01,08,12,20.60
2017,08,01,08,13,20.60
2017,08,01,08,14,20.60
2017,08,01,08,15,20.60
2017,08,01,08,16,20.60
2017,08,01,08,17,20.70
2017,08,01,08,18,20.70
2017,08,01,08,19,20.80
2017,08,01,08,20,20.80
2017,08,01,08,21,20.90
2017,08,01,08,22,21.00
2017,08,01,08,23,21.00
2017,08,01,08,24,21.10
2017,08,01,08,25,21.10
2017,08,01,08,26,21.20
2017,08,01,08,27,21.20
2017,08,01,08,28,21.30
2017,08,01,08,29,21.30
2017,08,01,08,30,21.30
2017,08,01,08,31,21.30
2017,08,01,08,32,21.30
2017,08,01,08,33,21.30
2017,08,01,08,34,21.30
2017,08,01,08,35,21.30
2017,08,01,08,36,21.40
2017,08,01,08,37,21.40
2017,08,01,08,38,21.40
2017,08,01,08,39,21.40
2017,08,01,08,40,21.50
2017,08,01,08,41,21.60
2017,08,01,08,42,21.60
2017,08,01,08,43,21.60
2017,08,01,08,44,21.60
2017,08,01,08,45,21.60
2017,08,01,08,46,21.60
2017,08,01,08,47,21.60
2017,08,01,08,48,21.60
2017,08,01,08,49,21.60
2017,08,01,08,50,21.60
2017,08,01,08,51,21.60
2017,08,01,08,52,21.60
2017,08,01,08,53,21.60
2017,08,01,08,54,21.60
2017,08,01,08,55,21.60
2017,08,01,08,56,21.60
2017,08,01,08,57,21.60
2017,08,01,08,58,21.60
2017,08,01,08,59,21.60
2017,08,01,09,00,21.60
2017,08,01,09,01,21.60
2017,08,01,09,02,21.60
2017,08,01,09,03,21.60
2017,08,01,09,04,21.60
2017,08,01,09,05,21.60
2017,08,01,09,06,21.60
2017,08,01,09,07,21.60
2017,08,01,09,08,21.60
2017,08,01,09,09,21.60
2017,08,01,09,10,21.60
2017,08,01,09,11,21.60
2017,08,01,09,12,21.60
2017,08,01,09,13,21.60
2017,08,01,09,14,21.60
2017,08,01,09,15,21.60
2017,08,01,09,16,21.70
2017,08,01,09,17,21.70
2017,08,01,09,18,21.80
2017,08,01,09,19,21.80
2017,08,01,09,20,21.80
2017,08,01,09,21,21.80
2017,08,01,09,22,21.80
2017,08,01,09,23,21.90
2017,08,01,09,24,21.90
2017,08,01,09,25,21.90
2017,08,01,09,26,21.90
2017,08,01,09,27,21.90
2017,08,01,09,28,21.90
2017,08,01,09,29,22.00
2017,08,01,09,30,22.00
2017,08,01,09,31,22.00
2017,08,01,09,32,22.00
2017,08,01,09,33,22.00
2017,08,01,09,34,22.00
2017,08,01,09,35,22.10
2017,08,01,09,36,22.10
2017,08,01,09,37,22.10
2017,08,01,09,38,22.10
2017,08,01,09,39,22.00
2017,08,01,09,40,22.00
2017,08,01,09,41,22.00
2017,08,01,09,42,22.00
2017,08,01,09,43,22.00
2017,08,01,09,44,22.00
2017,08,01,09,45,22.00
2017,08,01,09,46,22.00
2017,08,01,09,47,22.10
2017,08,01,09,48,22.10
2017,08,01,09,49,22.10
2017,08,01,09,50,22.20
2017,08,01,09,51,22.20
2017,08,01,09,52,22.30
2017,08,01,09,53,22.30
2017,08,01,09,54,22.30
2017,08,01,09,55,22.40
2017,08,01,09,56,22.40
2017,08,01,09,57,22.50
2017,08,01,09,58,22.50
2017,08,01,09,59,22.50
2017,08,01,10,00,22.60
2017,08,01,10,01,22.60
2017,08,01,10,02,22.70
2017,08,01,10,03,22.70
2017,08,01,10,04,22.70
2017,08,01,10,05,22.80
2017,08,01,10,06,22.80
2017,08,01,10,07,22.90
2017,08,01,10,08,22.90
2017,08,01,10,09,22.90
2017,08,01,10,10,22.90
2017,08,01,10,11,22.90
2017,08,01,10,12,23.00
2017,08,01,10,13,23.10
2017,08,01,10,14,23.10
2017,08,01,10,15,23.10
2017,08,01,10,16,23.20
2017,08,01,10,17,23.20
2017,08,01,10,18,23.20
2017,08,01,10,19,23.30
2017,08,01,10,20,23.30
2017,08,01,10,21,23.30
2017,08,01,10,22,23.30
2017,08,01,10,23,23.30
2017,08,01,10,24,23.30
2017,08,01,10,25,23.30
2017,08,01,10,26,23.30
2017,08,01,10,27,23.30
2017,08,01,10,28,23.20
2017,08,01,10,29,23.20
2017,08,01,10,30,23.20
2017,08,01,10,31,23.20
2017,08,01,10,32,23.30
2017,08,01,10,33,23.30
2017,08,01,10,34,23.20
2017,08,01,10,35,23.20
2017,08,01,10,36,23.20
2017,08,01,10,37,23.20
2017,08,01,10,38,23.20
2017,08,01,10,39,23.30
2017,08,01,10,40,23.30
2017,08,01,10,41,23.30
2017,08,01,10,42,23.30
2017,08,01,10,43,23.30
2017,08,01,10,44,23.30
2017,08,01,10,45,23.30
2017,08,01,10,46,23.30
2017,08,01,10,47,23.30
2017,08,01,10,48,23.30
2017,08,01,10,49,23.30
2017,08,01,10,50,23.30
2017,08,01,10,51,23.30
2017,08,01,10,52,23.30
2017,08,01,10,53,23.30
2017,08,01,10,54,23.30
2017,08,01,10,55,23.30
2017,08,01,10,56,23.30
2017,08,01,10,57,23.30
2017,08,01,10,58,23.30
2017,08,01,10,59,23.30
2017,08,01,11,00,23.40
2017,08,01,11,01,23.40
2017,08,01,11,02,23.40
2017,08,01,11,03,23.50
2017,08,01,11,04,23.60
2017,08,01,11,05,23.60
2017,08,01,11,06,23.60
2017,08,01,11,07,23.60
2017,08,01,11,08,23.50
2017,08,01,11,09,23.40
2017,08,01,11,10,23.40
2017,08,01,11,11,23.40
2017,08,01,11,12,23.40
2017,08,01,11,13,23.40
2017,08,01,11,14,23.30
2017,08,01,11,15,23.30
2017,08,01,11,16,23.30
2017,08,01,11,17,23.30
2017,08,01,11,18,23.40
2017,08,01,11,19,23.50
2017,08,01,11,20,23.60
2017,08,01,11,21,23.60
2017,08,01,11,22,23.70
2017,08,01,11,23,23.70
2017,08,01,11,24,23.70
2017,08,01,11,25,23.80
2017,08,01,11,26,23.80
2017,08,01,11,27,23.80
2017,08,01,11,28,23.80
2017,08,01,11,29,23.80
2017,08,01,11,30,23.90
2017,08,01,11,31,24.00
2017,08,01,11,32,24.10
2017,08,01,11,33,24.10
2017,08,01,11,34,24.10
2017,08,01,11,35,24.10
2017,08,01,11,36,24.10
2017,08,01,11,37,24.10
2017,08,01,11,38,24.10
2017,08,01,11,39,24.10
2017,08,01,11,40,24.10
2017,08,01,11,41,24.10
2017,08,01,11,42,24.10
2017,08,01,11,43,24.10
2017,08,01,11,44,24.10
2017,08,01,11,45,24.10
2017,08,01,11,46,24.20
2017,08,01,11,47,24.20
2017,08,01,11,48,24.20
2017,08,01,11,49,24.20
2017,08,01,11,50,24.30
2017,08,01,11,51,24.30
2017,08,01,11,52,24.30
2017,08,01,11,53,24.40
2017,08,01,11,54,24.40
2017,08,01,11,55,24.40
2017,08,01,11,56,24.40
2017,08,01,11,57,24.30
2017,08,01,11,58,24.30
2017,08,01,11,59,24.30
2017,08,01,12,00,24.30
2017,08,01,12,01,24.20
2017,08,01,12,02,24.20
2017,08,01,12,03,24.20
2017,08,01,12,04,24.30
2017,08,01,12,05,24.40
2017,08,01,12,06,24.40
2017,08,01,12,07,24.40
2017,08,01,12,08,24.40
2017,08,01,12,09,24.40
2017,08,01,12,10,24.40
2017,08,01,12,11,24.40
2017,08,01,12,12,24.40
2017,08,01,12,13,24.30
2017,08,01,12,14,24.30
2017,08,01,12,15,24.30
2017,08,01,12,16,24.30
2017,08,01,12,17,24.30
2017,08,01,12,18,24.40
2017,08,01,12,19,24.40
2017,08,01,12,20,24.50
2017,08,01,12,21,24.50
2017,08,01,12,22,24.50
2017,08,01,12,23,24.40
2017,08,01,12,24,24.40
2017,08,01,12,25,24.40
2017,08,01,12,26,24.40
2017,08,01,12,27,24.40
2017,08,01,12,28,24.50
2017,08,01,12,29,24.50
2017,08,01,12,30,24.50
2017,08,01,12,31,24.50
2017,08,01,12,32,24.60
2017,08,01,12,33,24.60
2017,08,01,12,34,24.60
2017,08,01,12,35,24.60
2017,08,01,12,36,24.70
2017,08,01,12,37,24.70
2017,08,01,12,38,24.80
2017,08,01,12,39,24.80
2017,08,01,12,40,24.90
2017,08,01,12,41,25.00
2017,08,01,12,42,25.00
2017,08,01,12,43,25.10
2017,08,01,12,44,25.00
2017,08,01,12,45,25.00
2017,08,01,12,46,25.00
2017,08,01,12,47,25.00
2017,08,01,12,48,25.00
2017,08,01,12,49,25.00
2017,08,01,12,50,25.00
2017,08,01,12,51,25.00
2017,08,01,12,52,25.00
2017,08,01,12,53,24.90
2017,08,01,12,54,24.90
2017,08,01,12,55,24.90
2017,08,01,12,56,25.00
2017,08,01,12,57,25.00
2017,08,01,12,58,25.00
2017,08,01,12,59,25.00
2017,08,01,13,00,25.10
2017,08,01,13,01,25.10
2017,08,01,13,02,25.10
2017,08,01,13,03,25.20
2017,08,01,13,04,25.20
2017,08,01,13,05,25.30
2017,08,01,13,06,25.30
2017,08,01,13,07,25.40
2017,08,01,13,08,25.50
2017,08,01,13,09,25.50
2017,08,01,13,10,25.60
2017,08,01,13,11,25.60
2017,08,01,13,12,25.60
2017,08,01,13,13,25.60
2017,08,01,13,14,25.60
2017,08,01,13,15,25.60
2017,08,01,13,16,25.60
2017,08,01,13,17,25.70
2017,08,01,13,18,25.70
2017,08,01,13,19,25.70
2017,08,01,13,20,25.70
2017,08,01,13,21,25.70
2017,08,01,13,22,25.70
2017,08,01,13,23,25.80
2017,08,01,13,24,25.80
2017,08,01,13,25,25.80
2017,08,01,13,26,25.80
2017,08,01,13,27,25.80
2017,08,01,13,28,25.70
2017,08,01,13,29,25.70
2017,08,01,13,30,25.70
2017,08,01,13,31,25.70
2017,08,01,13,32,25.80
2017,08,01,13,33,25.80
2017,08,01,13,34,25.70
2017,08,01,13,35,25.70
2017,08,01,13,36,25.70
2017,08,01,13,37,25.80
2017,08,01,13,38,25.80
2017,08,01,13,39,25.90
2017,08,01,13,40,25.90
2017,08,01,13,41,26.00
2017,08,01,13,42,26.00
2017,08,01,13,43,26.00
2017,08,01,13,44,26.00
2017,08,01,13,45,26.00
2017,08,01,13,46,26.10
2017,08,01,13,47,26.00
2017,08,01,13,48,26.00
2017,08,01,13,49,26.00
2017,08,01,13,50,25.90
2017,08,01,13,51,25.90
2017,08,01,13,52,25.90
2017,08,01,13,53,25.90
2017,08,01,13,54,26.00
2017,08,01,13,55,25.90
2017,08,01,13,56,25.90
2017,08,01,13,57,25.90
2017,08,01,13,58,25.80
2017,08,01,13,59,25.80
2017,08,01,14,00,25.70
2017,08,01,14,01,25.70
2017,08,01,14,02,25.80
2017,08,01,14,03,25.80
2017,08,01,14,04,25.80
2017,08,01,14,05,25.90
2017,08,01,14,06,25.90
2017,08,01,14,07,25.90
2017,08,01,14,08,25.90
2017,08,01,14,09,25.90
2017,08,01,14,10,26.00
2017,08,01,14,11,26.00
2017,08,01,14,12,26.10
2017,08,01,14,13,26.10
2017,08,01,14,14,26.20
2017,08,01,14,15,26.20
2017,08,01,14,16,26.20
2017,08,01,14,17,26.20
2017,08,01,14,18,26.20
2017,08,01,14,19,26.20
2017,08,01,14,20,26.20
2017,08,01,14,21,26.30
2017,08,01,14,22,26.40
2017,08,01,14,23,26.40
2017,08,01,14,24,26.40
2017,08,01,14,25,26.60
2017,08,01,14,26,26.60
2017,08,01,14,27,26.60
2017,08,01,14,28,26.70
2017,08,01,14,29,26.70
2017,08,01,14,30,26.70
2017,08,01,14,31,26.60
2017,08,01,14,32,26.60
2017,08,01,14,33,26.60
2017,08,01,14,34,26.70
2017,08,01,14,35,26.70
2017,08,01,14,36,26.80
2017,08,01,14,37,26.80
2017,08,01,14,38,26.80
2017,08,01,14,39,26.80
2017,08,01,14,40,26.90
2017,08,01,14,41,26.90
2017,08,01,14,42,26.90
2017,08,01,14,43,26.90
2017,08,01,14,44,27.00
2017,08,01,14,45,27.00
2017,08,01,14,46,27.10
2017,08,01,14,47,27.10
2017,08,01,14,48,27.10
2017,08,01,14,49,27.10
2017,08,01,14,50,27.20
2017,08,01,14,51,27.10
2017,08,01,14,52,27.10
2017,08,01,14,53,27.10
2017,08,01,14,54,27.10
2017,08,01,14,55,27.20
2017,08,01,14,56,27.20
2017,08,01,14,57,27.20
2017,08,01,14,58,27.20
2017,08,01,14,59,27.30
2017,08,01,15,00,27.30
2017,08,01,15,01,27.30
2017,08,01,15,02,27.30
2017,08,01,15,03,27.40
2017,08,01,15,04,27.40
2017,08,01,15,05,27.40
2017,08,01,15,06,27.50
2017,08,01,15,07,27.60
2017,08,01,15,08,27.50
2017,08,01,15,09,27.40
2017,08,01,15,10,27.40
2017,08,01,15,11,27.40
2017,08,01,15,12,27.40
2017,08,01,15,13,27.40
2017,08,01,15,14,27.40
2017,08,01,15,15,27.30
2017,08,01,15,16,27.30
2017,08,01,15,17,27.30
2017,08,01,15,18,27.20
2017,08,01,15,19,27.20
2017,08,01,15,20,27.10
2017,08,01,15,21,27.10
2017,08,01,15,22,27.00
2017,08,01,15,23,26.90
2017,08,01,15,24,26.90
2017,08,01,15,25,27.00
2017,08,01,15,26,27.10
2017,08,01,15,27,27.10
2017,08,01,15,28,27.10
2017,08,01,15,29,27.20
2017,08,01,15,30,27.20
2017,08,01,15,31,27.30
2017,08,01,15,32,27.40
2017,08,01,15,33,27.40
2017,08,01,15,34,27.40
2017,08,01,15,35,27.40
2017,08,01,15,36,27.40
2017,08,01,15,37,27.30
2017,08,01,15,38,27.30
2017,08,01,15,39,27.30
2017,08,01,15,40,27.30
2017,08,01,15,41,27.40
2017,08,01,15,42,27.40
2017,08,01,15,43,27.50
2017,08,01,15,44,27.60
2017,08,01,15,45,27.60
2017,08,01,15,46,27.70
2017,08,01,15,47,27.80
2017,08,01,15,48,27.90
2017,08,01,15,49,28.00
2017,08,01,15,50,28.00
2017,08,01,15,51,28.00
2017,08,01,15,52,28.00
2017,08,01,15,53,28.00
2017,08,01,15,54,28.10
2017,08,01,15,55,28.10
2017,08,01,15,56,28.10
2017,08,01,15,57,28.10
2017,08,01,15,58,28.10
2017,08,01,15,59,28.20
2017,08,01,16,00,28.30
2017,08,01,16,01,28.30
2017,08,01,16,02,28.30
2017,08,01,16,03,28.30
2017,08,01,16,04,28.40
2017,08,01,16,05,28.30
2017,08,01,16,06,28.30
2017,08,01,16,07,28.30
2017,08,01,16,08,28.20
2017,08,01,16,09,28.20
2017,08,01,16,10,28.20
2017,08,01,16,11,28.20
2017,08,01,16,12,28.20
2017,08,01,16,13,28.30
2017,08,01,16,14,28.40
2017,08,01,16,15,28.50
2017,08,01,16,16,28.50
2017,08,01,16,17,28.30
2017,08,01,16,18,28.20
2017,08,01,16,19,28.10
2017,08,01,16,20,27.80
2017,08,01,16,21,27.70
2017,08,01,16,22,27.60
2017,08,01,16,23,27.50
2017,08,01,16,24,27.40
2017,08,01,16,25,27.30
2017,08,01,16,26,27.30
2017,08,01,16,27,27.20
2017,08,01,16,28,27.20
2017,08,01,16,29,27.20
2017,08,01,16,30,27.20
2017,08,01,16,31,27.30
2017,08,01,16,32,27.20
2017,08,01,16,33,27.20
2017,08,01,16,34,27.10
2017,08,01,16,35,27.00
2017,08,01,16,36,26.80
2017,08,01,16,37,26.80
2017,08,01,16,38,26.70
2017,08,01,16,39,26.70
2017,08,01,16,40,26.70
2017,08,01,16,41,26.80
2017,08,01,16,42,26.80
2017,08,01,16,43,26.80
2017,08,01,16,44,26.80
2017,08,01,16,45,26.80
2017,08,01,16,46,26.80
2017,08,01,16,47,26.80
2017,08,01,16,48,26.90
2017,08,01,16,49,27.00
2017,08,01,16,50,27.10
2017,08,01,16,51,27.10
2017,08,01,16,52,27.20
2017,08,01,16,53,27.20
2017,08,01,16,54,27.30
2017,08,01,16,55,27.30
2017,08,01,16,56,27.30
2017,08,01,16,57,27.40
2017,08,01,16,58,27.40
2017,08,01,16,59,27.40
2017,08,01,17,00,27.50
2017,08,01,17,01,27.50
2017,08,01,17,02,27.40
2017,08,01,17,03,27.30
2017,08,01,17,04,27.30
2017,08,01,17,05,27.30
2017,08,01,17,06,27.30
2017,08,01,17,07,27.30
2017,08,01,17,08,27.30
2017,08,01,17,09,27.30
2017,08,01,17,10,27.30
2017,08,01,17,11,27.30
2017,08,01,17,12,27.30
2017,08,01,17,13,27.30
2017,08,01,17,14,27.30
2017,08,01,17,15,27.30
2017,08,01,17,16,27.30
2017,08,01,17,17,27.30
2017,08,01,17,18,27.30
2017,08,01,17,19,27.20